Vertical_Velocity
-4 -6 -1 -0 -13 -13 3 1 6 5 8 3 -1 -3 9 -10 -1 10 5 0 -1 0 1 0 -0 0 -1 -2 -1 -2 -1 -0 -0 -1 1 1 1 -0 -1 1 2 1 1 0 -2 -0 -1 1 0
-5 -3 -7 -16 -13 -14 11 18 4 5 5 3 -1 5 2 7 -3 -9 8 15 -7 -1 -1 -2 -0 2 3 1 -0 -2 -2 -1 1 -0 -1 -0 1 0 -1 -1 -1 0 2 2 1 0 1 1 1
-3 -2 -5 -12 -7 -1 -8 2 3 -3 -7 3 -8 -0 -4 16 -12 -8 -2 -2 -0 -4 2 -1 -1 -0 3 3 2 -0 -4 -1 1 1 -0 -1 -0 0 -1 -0 -1 1 1 2 1 0 1 2 0
-6 -0 -11 -8 1 -3 -1 0 1 -5 -4 -2 -1 3 -5 11 -4 2 5 -5 4 7 -6 -2 2 -0 -0 3 2 3 0 -3 -1 1 0 1 -0 0 1 -1 0 -0 1 4 1 -1 1 0 1
-8 -9 -5 -8 2 -7 -14 -2 -6 -6 -9 1 0 -1 1 3 -2 1 5 1 4 0 11 -5 1 -1 -0 -0 2 1 3 -2 -2 0 1 -1 -0 -1 -0 1 -2 -0 1 1 2 -0 0 2 0
-9 -7 -3 -12 -7 -8 4 -11 0 -1 0 6 -1 6 6 -1 -2 5 5 0 4 -4 6 4 -6 0 1 0 -0 1 1 2 -2 0 2 1 -0 -1 -1 1 -0 -2 1 1 1 0 -1 1 1
-1 -1 5 -4 -3 -3 -4 -1 -5 1 1 5 -9 -6 10 4 -8 1 -1 -2 5 0 2 11 5 -7 0 1 -0 1 0 0 1 -2 1 1 1 1 1 1 1 -0 -2 2 1 -1 -0 0 0
-13 -12 -13 -18 -5 -5 2 -1 -3 -2 3 2 -6 -14 7 3 -1 3 1 5 -0 2 2 3 4 -6 5 3 1 3 1 -1 1 -2 -1 0 1 1 0 1 1 0 1 1 1 0 -0 -0 -2
-5 -13 -7 -7 -12 -3 -4 2 3 -1 -2 1 -6 -3 19 -1 4 1 7 1 -1 9 6 7 4 10 -6 4 -2 -1 4 1 -1 -1 -2 -2 1 1 2 -0 0 -0 1 3 1 -1 -0 0 -0
-10 -8 -9 -6 -5 -4 -1 -1 9 -1 -2 4 -4 -0 12 -1 4 4 2 2 4 1 -1 1 16 1 6 -4 -0 7 2 3 2 0 -2 -2 0 1 1 2 1 -1 -0 4 2 1 0 1 -0
1 -8 -8 -3 -9 -7 0 7 -8 -6 2 3 0 1 6 -0 10 4 5 -5 3 6 -1 1 -6 -7 0 13 3 -4 8 1 7 -2 -1 -2 -1 1 -2 1 2 0 -1 1 3 2 0 0 0
-0 -5 -11 1 -4 -4 -0 1 1 -10 9 -3 -6 -7 -3 8 -6 3 6 4 21 1 0 4 0 28 -19 19 6 1 -0 6 3 1 -3 -2 -1 -2 1 2 2 2 -0 1 1 1 -0 -1 -1
-6 -3 -9 -4 -6 -4 1 2 -16 23 6 -3 4 1 -1 5 4 10 -0 6 10 -5 5 -3 -6 17 22 -22 0 8 2 -6 6 6 1 -2 0 -1 1 1 3 1 -1 1 2 0 -0 -1 -1
-7 -5 -6 -3 -2 -5 -4 4 -5 -15 -5 -2 -0 -2 -2 -1 7 -5 9 4 -2 0 -4 -8 -4 4 17 41 9 -1 -1 11 -5 1 0 -3 -0 -0 -0 1 2 1 -1 3 1 -2 0 -1 -3
-10 -4 -7 -8 -13 -3 -7 11 0 -5 -7 -2 -0 3 1 -1 3 5 7 -7 11 2 -6 8 -8 -6 -4 3 2 -6 -23 -2 -12 -10 -7 -7 -6 -0 0 1 -0 -1 0 3 3 -0 0 1 1
-6 2 1 -13 -7 -9 -13 11 12 -9 -9 -1 -4 -6 -10 1 7 -6 -1 -1 3 -2 1 7 -1 2 -5 -4 6 6 -10 -16 -18 -4 2 -6 -9 -4 -2 1 -1 -4 -3 3 2 1 -2 -2 -2
1 4 -10 -1 -4 -5 -12 0 4 -0 -6 -4 -10 -8 -15 -11 -2 -1 -4 -1 -7 -3 8 2 7 -4 2 0 -0 -1 -6 -6 1 20 -2 -2 -5 -3 0 2 -3 -2 -2 2 1 1 -0 -1 -2
-1 -4 5 -13 2 -1 -9 -1 -3 -7 -5 -7 -3 -1 -2 2 -2 -3 2 0 -1 -8 7 18 9 3 10 1 -1 41 6 -5 -9 23 -9 4 10 8 4 0 5 -3 -5 1 1 1 -1 -2 -2
1 -5 -5 -3 -9 -10 -10 -0 -9 4 -10 -2 -6 -2 -6 -5 -1 -1 2 9 -5 1 -7 3 6 4 1 2 -3 3 -2 -5 -6 55 -19 11 10 5 1 2 -2 3 4 -3 -1 -1 -1 0 -1
-3 -3 -5 5 -6 -13 -9 4 2 -0 -4 -5 -5 -10 -7 -5 -6 -8 -4 -6 0 0 -6 -2 5 -0 2 0 -7 -7 -5 1 -9 -16 14 89 -9 15 1 5 1 1 -5 2 -1 -1 -0 2 0
-8 -8 -8 -18 5 5 -7 -7 -2 3 1 -5 1 -1 -5 -7 -2 -6 -4 -3 -3 -1 -3 3 1 13 -4 1 3 -3 -0 6 0 6 4 31 75 67 -6 -2 -0 -0 2 2 6 -2 3 3 0
-2 5 1 -9 -14 -12 -11 -16 -2 -4 -1 -1 -1 1 -6 -11 -4 -3 -5 -4 -4 -7 1 -3 1 15 4 10 9 -0 -0 -0 9 0 12 10 43 -35 206 17 -11 -1 -10 5 7 3 -2 -2 3
1 -2 -2 -2 -1 -7 -2 -15 -0 -7 -3 -2 -1 -7 -2 -8 -5 -4 -3 -1 -6 -4 2 -0 1 -8 10 -2 -6 -4 -1 3 6 -0 -2 -1 -15 5 -2 -22 36 -24 -4 -10 32 -0 1 1 -2
-4 3 1 -0 -1 -2 -6 -7 7 -6 -6 -3 -2 -2 -7 -1 -6 -6 -3 -1 -2 -10 -6 -5 -0 5 -2 -8 1 4 5 10 0 2 -5 -0 -10 -4 -11 2 -9 -3 9 3 17 5 24 -4 2
-5 -6 -1 -4 -4 -5 -5 3 -1 -5 -7 -6 -2 -2 -7 -6 -3 -4 -6 1 -4 1 -8 -3 6 3 1 -6 2 5 3 3 2 -4 7 33 -4 -12 -3 0 -4 6 19 16 17 9 2 1 -1
0 -2 -1 -15 -13 1 18 6 -3 -0 -1 -5 -8 -1 -1 -4 -5 -4 -5 -6 -6 -4 -6 -6 -4 6 3 -4 -2 5 7 4 3 1 6 -4 -2 4 6 -6 24 18 3 -7 -4 7 1 10 2
-5 -8 -3 -11 3 -1 -3 1 4 -1 -1 -0 -2 -5 -4 -0 -2 -4 -3 -7 -5 -7 -4 -6 1 2 2 2 -2 5 2 -3 -2 -0 -3 -1 2 4 5 -0 3 11 18 10 13 7 5 -2 -5
2 -2 -6 -1 -15 -19 3 8 -11 -1 1 -2 -1 -4 -2 -6 -2 -4 -3 1 -9 -5 -4 -1 -5 -6 1 -1 0 2 7 -2 4 -4 -3 1 4 6 3 -4 1 -3 4 3 2 -0 -3 6 2
2 -4 -6 -3 -1 -7 -22 9 -4 -4 -3 -1 -2 -2 -2 -4 -4 -1 -3 2 -4 -5 -3 1 -1 1 -1 -5 3 2 -1 -4 -2 10 8 13 2 1 2 3 2 0 4 -4 -9 2 -6 -1 -6
3 1 -0 -4 -0 3 -0 4 -0 -1 1 2 -1 -1 -0 -2 -2 -2 -2 -2 -1 -3 -2 2 -2 3 -5 10 3 1 3 -1 7 18 5 -2 -0 -4 2 -2 -2 -0 2 -2 1 -1 0 0 2
Height
5785 5784 5782 5780 5779 5770 5769 5769 5771 5779 5788 5794 5793 5793 5795 5796 5799 5801 5808 5811 5814 5819 5820 5823 5827 5831 5834 5838 5842 5847 5849 5851 5855 5858 5862 5865 5869 5872 5874 5876 5879 5880 5882 5883 5884 5882 5881 5880 5880
5777 5773 5772 5769 5768 5760 5755 5758 5758 5763 5777 5780 5779 5780 5782 5787 5790 5791 5802 5804 5802 5809 5813 5817 5821 5825 5830 5833 5837 5842 5846 5849 5852 5855 5859 5863 5867 5870 5872 5875 5878 5880 5882 5884 5885 5884 5883 5882 5882
5770 5766 5761 5757 5755 5751 5741 5739 5742 5746 5759 5760 5764 5765 5768 5776 5778 5780 5790 5794 5799 5801 5807 5810 5814 5820 5824 5828 5833 5837 5842 5845 5849 5852 5855 5860 5864 5868 5871 5873 5875 5879 5882 5883 5885 5885 5884 5884 5883
5762 5757 5749 5744 5738 5735 5727 5720 5722 5727 5734 5737 5746 5752 5755 5759 5768 5772 5782 5787 5793 5795 5798 5804 5809 5813 5818 5822 5828 5832 5837 5841 5844 5848 5852 5856 5860 5864 5868 5871 5873 5876 5879 5883 5884 5885 5885 5885 5885
5752 5747 5738 5728 5719 5713 5706 5699 5697 5703 5713 5712 5726 5739 5744 5748 5757 5762 5771 5778 5784 5789 5792 5796 5801 5807 5812 5817 5821 5827 5831 5835 5840 5844 5849 5852 5856 5860 5864 5867 5871 5874 5877 5881 5883 5885 5886 5887 5887
5739 5732 5724 5715 5706 5696 5685 5680 5677 5678 5683 5693 5707 5722 5733 5736 5743 5751 5759 5769 5775 5781 5785 5789 5794 5799 5804 5810 5815 5820 5826 5829 5834 5838 5843 5848 5852 5856 5860 5865 5868 5872 5876 5879 5881 5883 5886 5887 5889
5726 5717 5707 5697 5689 5681 5668 5661 5658 5657 5661 5671 5684 5700 5717 5722 5728 5736 5745 5756 5766 5771 5776 5781 5783 5790 5797 5803 5808 5813 5819 5824 5828 5832 5837 5842 5847 5852 5856 5861 5865 5869 5874 5877 5879 5882 5884 5887 5888
5715 5707 5698 5686 5674 5664 5655 5646 5643 5641 5647 5650 5661 5675 5695 5707 5713 5720 5729 5742 5754 5762 5765 5770 5777 5776 5786 5794 5801 5806 5812 5817 5822 5827 5831 5835 5841 5846 5852 5857 5862 5866 5871 5876 5878 5880 5882 5886 5888
5702 5694 5682 5671 5659 5647 5639 5635 5628 5625 5633 5637 5647 5661 5677 5687 5697 5705 5715 5727 5740 5749 5756 5760 5769 5775 5773 5782 5789 5796 5803 5809 5814 5819 5824 5828 5835 5841 5846 5852 5857 5861 5867 5873 5877 5878 5879 5883 5886
5690 5682 5667 5657 5645 5632 5624 5621 5615 5613 5617 5628 5636 5648 5659 5668 5679 5690 5698 5709 5723 5735 5743 5750 5757 5764 5769 5772 5778 5785 5794 5800 5806 5811 5818 5823 5828 5835 5842 5847 5852 5857 5862 5869 5875 5875 5877 5880 5883
5677 5667 5654 5644 5632 5616 5609 5606 5600 5599 5608 5616 5620 5630 5642 5650 5664 5672 5683 5693 5706 5719 5731 5738 5747 5753 5762 5768 5770 5776 5783 5790 5797 5803 5810 5817 5822 5828 5835 5842 5848 5854 5860 5866 5871 5872 5874 5876 5880
5669 5655 5643 5634 5621 5606 5593 5590 5588 5590 5603 5599 5602 5612 5621 5635 5644 5657 5669 5682 5692 5701 5715 5725 5734 5732 5750 5751 5761 5767 5775 5782 5788 5795 5803 5810 5817 5822 5829 5836 5845 5850 5855 5860 5866 5869 5870 5872 5876
5656 5647 5633 5621 5611 5595 5583 5579 5576 5585 5575 5578 5587 5597 5608 5621 5630 5641 5648 5663 5676 5688 5699 5708 5718 5719 5727 5740 5751 5758 5764 5773 5780 5787 5795 5803 5809 5816 5823 5830 5838 5844 5847 5853 5861 5865 5866 5868 5872
5649 5640 5627 5614 5602 5585 5576 5572 5568 5567 5568 5571 5575 5583 5589 5602 5615 5623 5631 5644 5658 5671 5682 5691 5702 5710 5716 5716 5737 5748 5756 5763 5768 5777 5787 5795 5801 5809 5816 5823 5831 5835 5839 5846 5854 5859 5862 5864 5868
5641 5630 5618 5603 5594 5580 5569 5569 5565 5564 5561 5561 5564 5569 5578 5586 5596 5606 5612 5622 5633 5647 5664 5674 5684 5697 5708 5716 5727 5739 5753 5749 5760 5768 5778 5787 5794 5801 5809 5815 5823 5825 5830 5837 5846 5853 5857 5860 5863
5634 5623 5611 5597 5588 5576 5562 5566 5561 5553 5549 5548 5550 5554 5558 5567 5573 5576 5588 5602 5615 5633 5648 5660 5672 5681 5695 5705 5714 5726 5735 5748 5758 5765 5771 5778 5788 5794 5801 5808 5814 5817 5822 5830 5839 5845 5850 5854 5858
5627 5614 5604 5592 5583 5570 5557 5554 5553 5545 5539 5537 5534 5537 5542 5553 5556 5564 5574 5587 5600 5616 5630 5645 5654 5668 5682 5694 5705 5711 5724 5740 5745 5744 5763 5768 5777 5785 5794 5800 5805 5809 5814 5822 5831 5838 5843 5847 5851
5617 5608 5596 5582 5576 5567 5553 5542 5540 5532 5527 5525 5524 5527 5531 5538 5548 5553 5560 5571 5586 5598 5612 5625 5638 5649 5666 5679 5691 5696 5711 5728 5739 5735 5748 5757 5764 5772 5782 5791 5797 5801 5806 5812 5823 5831 5836 5840 5844
5609 5601 5591 5576 5564 5558 5547 5534 5526 5527 5519 5518 5518 5519 5521 5524 5529 5535 5543 5554 5568 5579 5593 5607 5627 5638 5650 5665 5679 5692 5703 5714 5724 5721 5738 5740 5752 5761 5769 5778 5787 5794 5800 5807 5814 5822 5828 5832 5837
5600 5592 5585 5573 5559 5546 5543 5529 5518 5516 5514 5512 5512 5511 5511 5512 5511 5513 5523 5533 5547 5563 5575 5590 5608 5623 5636 5650 5663 5678 5688 5699 5709 5719 5717 5720 5735 5745 5756 5766 5776 5784 5792 5798 5805 5813 5820 5827 5830
5591 5581 5574 5567 5561 5541 5531 5526 5513 5509 5507 5506 5504 5503 5502 5500 5498 5498 5505 5515 5527 5541 5559 5574 5590 5608 5621 5636 5649 5664 5676 5688 5696 5700 5708 5710 5716 5730 5745 5755 5764 5774 5784 5790 5796 5803 5810 5817 5823
5585 5575 5565 5556 5545 5535 5523 5521 5510 5502 5500 5498 5498 5492 5491 5490 5486 5484 5487 5497 5510 5524 5539 5557 5573 5589 5603 5617 5629 5646 5662 5675 5683 5691 5697 5701 5709 5723 5717 5745 5754 5766 5775 5781 5784 5793 5800 5807 5814
5578 5567 5556 5548 5539 5528 5518 5508 5502 5495 5490 5488 5485 5485 5480 5479 5476 5472 5472 5479 5492 5506 5518 5536 5552 5568 5584 5600 5616 5629 5646 5660 5668 5679 5683 5692 5704 5712 5713 5735 5744 5754 5761 5766 5770 5781 5790 5797 5803
5570 5560 5550 5541 5533 5523 5511 5502 5496 5486 5482 5477 5476 5473 5473 5469 5467 5463 5462 5464 5472 5485 5499 5517 5534 5547 5568 5585 5601 5616 5630 5641 5653 5666 5671 5681 5694 5703 5711 5721 5732 5734 5739 5757 5763 5769 5777 5785 5791
5561 5552 5543 5536 5523 5520 5506 5497 5485 5478 5472 5469 5467 5463 5461 5460 5457 5454 5453 5453 5455 5468 5483 5496 5513 5532 5551 5566 5583 5600 5613 5625 5638 5652 5663 5674 5683 5691 5700 5710 5719 5730 5736 5747 5754 5756 5766 5774 5781
5553 5544 5534 5523 5517 5511 5504 5491 5480 5470 5462 5458 5457 5456 5451 5449 5447 5443 5441 5441 5441 5449 5463 5478 5493 5512 5531 5549 5568 5584 5599 5612 5626 5638 5653 5661 5671 5683 5691 5701 5710 5716 5726 5733 5743 5750 5758 5768 5772
5545 5537 5527 5519 5512 5499 5496 5487 5476 5465 5456 5449 5447 5445 5443 5439 5438 5434 5430 5430 5430 5434 5447 5462 5475 5493 5513 5531 5550 5566 5583 5599 5613 5627 5640 5649 5657 5668 5678 5688 5696 5706 5716 5722 5732 5740 5751 5759 5762
5539 5531 5519 5510 5501 5492 5486 5479 5468 5461 5451 5442 5437 5435 5433 5429 5426 5424 5420 5420 5421 5422 5430 5446 5462 5476 5495 5513 5532 5550 5567 5584 5600 5612 5625 5635 5644 5654 5664 5674 5684 5693 5703 5714 5724 5730 5739 5748 5756
5531 5523 5513 5503 5495 5485 5472 5474 5461 5452 5444 5436 5428 5424 5423 5419 5415 5413 5411 5411 5412 5413 5417 5431 5447 5466 5480 5498 5515 5533 5552 5570 5585 5600 5612 5622 5629 5641 5652 5663 5673 5683 5695 5705 5715 5725 5732 5739 5747
5522 5515 5507 5495 5489 5481 5468 5467 5456 5447 5439 5431 5422 5415 5413 5411 5407 5404 5403 5402 5401 5403 5406 5418 5434 5451 5467 5484 5502 5515 5535 5557 5568 5584 5598 5609 5617 5627 5638 5649 5662 5672 5684 5696 5706 5716 5724 5730 5740